Regional Weather Roundup
Issued by NWS

Home | Current Version | Previous Version | Text Only | Print | Product List | Glossary Off
Versions: 1 2 3 4 5 6 7 8 9 10 11 12 13 14 15 16 17 18 19 20 21 22 23 24 25 26 27 28 29 30 31 32 33 34 35 36 37 38 39 40 41 42 43 44 45 46 47 48 49 50

000
ASUS43 KIND 261709
RWRIN

WEATHER ROUNDUP FOR INDIANA
NATIONAL WEATHER SERVICE INDIANAPOLIS IN
100 PM EDT THU APR 26 2018

NOTE: "FAIR" INDICATES FEW OR NO CLOUDS BELOW 12,000 FEET WITH NO
SIGNIFICANT WEATHER AND/OR OBSTRUCTIONS TO VISIBILITY.

* - STATION DOES NOT REPORT WEATHER SUCH AS PRECIPITATION OR FOG.

+ - STATION NOT QUALITY CONTROLLED BY THE NATIONAL WEATHER SERVICE.
    USE DATA WITH CAUTION...ESPECIALLY DEWPOINT AND RELATIVE
    HUMIDITY OBSERVATIONS.

INZ001>003-010>013-019-020-261800-
NORTHWEST INDIANA

CITY           SKY/WX    TMP DP  RH WIND       PRES   REMARKS
GARY /AIRPORT/ MOSUNNY   55  28  35 NE6       29.98S
KNOX *+        FAIR      55  36  47 CALM      29.96S
LA PORTE +     FAIR      56  32  39 E3        29.96S
MICHIGAN CITY+ FAIR      54  37  54 N6        29.97S
MONTICELLO +   FAIR      56  34  43 CALM      29.95F
RENSSELAER +   FAIR      57  25  28 N6        29.96F
VALPARAISO     FAIR      61  35  37 VRB5      29.96F

$$

LMZ046-743>745-261800-
SOUTHERN LAKE MICHIGAN

STATION/POSITION TIME  TEMP    WIND        PRES    WAVE
                       AIR SEA DIR/SP/G            HT
                 (UTC) (F)     (DEG/KT/KT) (MB)    (FT)
BURNS HARBOR     1640   41     360/  4/  5 1015.6F
MICHIGAN CITY    1640   44     330/  5/  6   N/A

$$

INZ004-005-014>016-021>024-261800-
NORTH CENTRAL INDIANA

CITY           SKY/WX    TMP DP  RH WIND       PRES   REMARKS
ELKHART        FAIR      59  36  41 CALM      29.95F
GOSHEN         FAIR      56  40  55 SW3       29.95F
LOGANSPORT +   FAIR      55  36  47 NE3       29.96F
ROCHESTER +    FAIR      59  39  47 S6        29.95F
SOUTH BEND     FAIR      56  31  38 S6        29.97S
WARSAW +       FAIR      54  37  54 E5        29.95S

$$

INZ006>009-017-018-025>027-261800-
NORTHEAST INDIANA

CITY           SKY/WX    TMP DP  RH WIND       PRES   REMARKS
ANGOLA *+      FAIR      54  37  54 VRB5      29.95S
AUBURN +       FAIR      55  37  50 SE3       29.96S
FORT WAYNE     FAIR      59  42  53 NE6       29.95F
HUNTINGTON +   FAIR      57  38  49 SE6       29.94F
KENDALLVILLE + FAIR      55  33  44 W3        29.95F

$$

INZ028-029-035-036-043>045-051>053-261800-
WEST CENTRAL INDIANA

CITY           SKY/WX    TMP DP  RH WIND       PRES   REMARKS
CRAWFORDSVL +  FAIR      54  36  49 NE6       29.94F
GREENCASTLE +  FAIR      55  30  38 CALM      29.94S
LAFAYETTE      FAIR      56  37  49 MISG      29.95F
TERRE HAUTE    FAIR      59  32  36 N8        29.94F

$$

INZ030>032-037>040-046>048-054>057-064-065-261800-
CENTRAL INDIANA

CITY           SKY/WX    TMP DP  RH WIND       PRES   REMARKS
ANDERSON       SUNNY     55  39  54 CALM      29.94
COLUMBUS       SUNNY     57  30  35 NW7       29.92F
FISHERS *+     FAIR      57  41  54 NE6       29.93F
FRANKFORT +    FAIR      60  38  45 NE7       29.95F
GREENWOOD *+   FAIR      56  29  36 CALM      29.93F
INDIANAPOLIS   FAIR      58  31  35 NE8       29.93F
-EAGLE CREEK   FAIR      58  35  42 NW9       29.92F
KOKOMO +       FAIR      57  40  52 NW5       29.95F
MARION +       FAIR      55  40  57 CALM      29.95F
MT COMFORT *+  FAIR      57  43  58 N3        29.93F
SHELBYVILLE    FAIR      59  34  39 N7        29.91F
ZIONSVILLE +   FAIR      55  38  53 CALM      29.94F

$$

INZ033-034-041-042-049-050-058-059-261800-
EAST CENTRAL INDIANA

CITY           SKY/WX    TMP DP  RH WIND       PRES   REMARKS
MUNCIE         FAIR      58  41  53 CALM      29.93F
RICHMOND +     FAIR      57  34  41 CALM      29.92F

$$

INZ060-061-067>069-081>083-085>088-261800-
SOUTHWEST INDIANA

CITY           SKY/WX    TMP DP  RH WIND       PRES   REMARKS
EVANSVILLE     FAIR      62  38  40 NE13      29.92F
HUNTINGBURG +  FAIR      60  35  39 N7        29.91F
WASHINGTON +   FAIR      60  25  26 N10       29.92F

$$

INZ062-063-066-070>080-084-089>092-261800-
SOUTH CENTRAL AND SOUTHEAST INDIANA

CITY           SKY/WX    TMP DP  RH WIND       PRES   REMARKS
BATESVILLE +   SUNNY     59  30  33 MISG      29.91F
BEDFORD +      FAIR      61  23  23 NW5       29.91F
BLOOMINGTON    FAIR      61  30  31 MISG      29.92F
FRENCH LICK *+ FAIR      61  18  18 CALM      29.91F
MADISON *+     FAIR      61  27  27 CALM      29.93S
NORTH VERNON + FAIR      57  28  33 CALM      29.92F
SEYMOUR +      FAIR      61  34  36 N3        29.92F

$$





USA.gov is the U.S. government's official web portal to all federal, state and local government web resources and services.